Weather in Razdolnoye

Russia / Primorsky Krai     43°31′04″N   131°54′14″E
temp.,
°C
wind,
m/s
gust,
m/s
humid.,
%
clouds,
%
prec.,
mm/h
press.,
hPa
HPBL,
m
13 april, tue
tue1301:00+7s51187100 0.2 1011637
04:00+6sse3995100 2.8 1008522
07:00+6ssw1498100 3.9 1004179
10:00+1nnw71689100 7.6 1006684
13:00+5nnw7125892 0.7 10071538
16:00+8nw8113018 0.8 10072461
19:00+5nnw711292 0.0 10092225
22:00+2nnw410346 0.0 1012584
14 april, wed
wed1401:000nw2747100 0.0 1013211
04:00−1w11512 0.0 101317
07:00−1sw1248100 0.0 101447
10:00+4ssw233198 0.0 1013795
13:00+5ssw5842100 0.3 10121797
16:00+4s686194 1.2 1010641
19:00+4sse4760100 0.1 1011349
22:00+2se227629 0.1 101330
15 april, thu
thu1501:00+1sse11800 0.0 101411
04:000se11785 0.0 101511
07:00+1se227219 0.0 101534
10:00+7s48385 0.0 1015466
13:00+11s7113699 0.0 1014830
16:00+11s7124099 0.0 1013775
19:00+8sse51251100 0.0 1014671
22:00+6sse5136560 0.0 1015586
16 april, fri
fri1601:00+6sse6147548 0.0 1014608
04:00+6sse6148780 0.0 1013719
07:00+7sse71586100 0.0 1010912
10:00+9sse101770100 0.0 10091293
13:00+10sse101771100 0.3 10061516
16:00+10s10177562 0.8 10031634
19:00+8sse8157699 0.6 10021470
22:00+7s61085100 1.2 10011071
17 april, sat
sat1701:00+5sse389296 0.6 1002376
04:00+5sse389133 0.7 1002365
07:00+4sse249251 0.0 1003157
10:00+8s22666 0.0 1004707
13:00+11ssw44465 0.1 10041573
16:00+11ssw3342100 0.1 10041562
19:00+10wnw245399 0.1 1005921
22:00+8wnw2678100 0.6 1007804